Voltar ao catálogo

SHIYAN 10 02

SY-10 02

AtivoCiênciaHEO
NORAD 54878·PAYLOAD·🇨🇳 China

Lançado Dec 29, 2022 de Xichang Satellite Launch Center

Loading…

Próximas Passagens (próximas 24 horas)

TLE

AtualizadoSource: Space-Track

Época: Sep 13, 2026, 21:08 UTC

1 54878U 22178A   26256.88096953  .00000837  00000-0  00000-0 0  9999
2 54878  64.0134 310.3824 6904856 267.6534  18.6662  2.00653885 18335

Acompanhe SHIYAN 10 02 em tempo real com AllMySat

Download on the App Store